1506938400.79,51345,16.31,74280.5,8.99,-33.03,-33.49,0,*7D
1506938401.99,51346,16.31,74284.8,8.99,-33.37,-33.83,0,*7F
1506938403.21,51347,16.31,74284.0,9.03,-33.49,-34.07,0,*7E
1506938404.4,51348,16.31,74282.0,9.03,-33.83,-34.25,0,*77
1506938405.65,51349,16.31,74286.0,9.03,-33.31,-33.77,0,*7F
1506938406.86,51350,16.31,74290.0,9.03,-33.83,-34.35,0,*7F
1506938408.09,51351,16.31,74284.5,9.09,-32.85,-33.21,0,*71
1506938409.32,51352,16.31,74290.0,9.09,-32.97,-33.55,0,*72
1506938410.58,51353,16.31,74286.0,9.13,-32.79,-33.43,0,*7F
1506938411.82,51354,16.31,74290.5,9.13,-33.61,-34.19,0,*78
1506938413.05,51355,16.31,74286.5,9.13,-34.19,-34.71,0,*7F
1506938414.3,51356,16.31,74288.8,9.15,-34.35,-35.13,0,*71
1506938415.58,51357,16.31,74290.0,9.11,-34.83,-35.41,0,*7E
1506938416.84,51358,16.31,74288.5,9.13,-37.21,-37.81,0,*76
1506938418.13,51359,16.31,74286.0,9.11,-34.95,-35.35,0,*74
1506938419.36,51360,16.31,74286.0,9.11,-33.67,-33.95,0,*78
1506938420.6,51361,16.31,74288.3,9.11,-33.89,-34.25,0,*75
1506938421.8,51362,16.31,74286.8,9.13,-33.15,-33.67,0,*70
1506938423.0,51363,16.31,74290.5,9.13,-32.23,-32.69,0,*7A
1506938424.25,51364,16.31,74288.0,9.15,-32.91,-33.43,0,*7B
1506938425.51,51365,16.31,74288.3,9.17,-32.85,-33.27,0,*7F
1506938426.74,51366,16.31,74288.5,9.17,-33.37,-33.73,0,*75
1506938428.0,51367,16.31,74290.5,9.19,-32.85,-33.37,0,*72
1506938429.25,51368,16.31,74288.5,9.19,-33.95,-34.65,0,*7D
1506938430.48,51369,16.31,74284.8,9.21,-34.83,-35.17,0,*73
1506938431.71,51370,16.31,74284.8,9.21,-34.01,-34.59,0,*7A
1506938432.94,51371,16.31,74290.5,9.21,-34.19,-34.71,0,*78
1506938434.21,51372,16.31,74288.5,9.23,-33.43,-33.89,0,*71
1506938435.43,51373,16.31,74288.3,9.21,-32.51,-32.97,0,*7E
1506938436.68,51374,16.31,74286.3,9.25,-33.49,-34.31,0,*7F
1506938437.96,51375,16.31,74284.5,9.23,-34.95,-35.53,0,*7B
1506938439.22,51376,16.31,74288.3,9.23,-34.41,-34.95,0,*7A
1506938440.49,51377,16.31,74290.8,9.23,-33.73,-34.35,0,*77
1506938441.74,51378,16.31,74292.3,9.23,-33.73,-34.25,0,*79
1506938442.97,51379,16.31,74292.0,9.25,-32.85,-33.21,0,*75
1506938444.21,51380,16.31,74294.3,9.31,-32.63,-33.15,0,*79
1506938445.44,51381,16.25,74288.0,9.27,-33.37,-33.67,0,*7A
1506938446.69,51382,16.31,74292.8,9.27,-33.43,-33.67,0,*7A
1506938447.94,51383,16.31,74294.0,9.31,-33.73,-34.25,0,*7E
1506938449.16,51384,16.31,74294.3,9.31,-33.03,-33.55,0,*7E
1506938450.43,51385,16.31,74288.3,9.35,-33.27,-33.73,0,*79
1506938451.65,51386,16.31,74290.3,9.35,-35.29,-35.71,0,*76
1506938452.92,51387,16.31,74290.5,9.35,-36.13,-36.61,0,*7F
1506938454.14,51388,16.31,74290.5,9.33,-36.31,-36.79,0,*7F
1506938455.39,51389,16.25,74292.3,9.31,-35.53,-35.89,0,*77
1506938456.62,51390,16.31,74298.8,9.27,-36.55,-37.15,0,*7A
1506938457.9,51391,16.31,74292.5,9.27,-37.09,-37.51,0,*73
1506938459.13,51392,16.31,74292.8,9.27,-34.89,-35.13,0,*7F
1506938460.33,51393,16.31,74290.0,9.25,-33.67,-34.13,0,*7A
1506938461.55,51394,16.31,74292.5,9.25,-33.43,-33.83,0,*75
1506938462.8,51395,16.31,74290.8,9.25,-32.75,-33.09,0,*72
1506938464.05,51396,16.25,74290.3,9.31,-32.51,-32.79,0,*74
1506938465.28,51397,16.31,74298.5,9.33,-34.41,-34.95,0,*74
1506938466.53,51398,16.31,74296.8,9.33,-34.95,-35.35,0,*79
1506938467.75,51399,16.31,74302.5,9.33,-33.89,-34.25,0,*72
1506938468.99,51400,16.25,74300.8,9.35,-33.67,-34.19,0,*7C
1506938470.21,51401,16.25,74298.3,9.35,-33.15,-33.55,0,*77
1506938471.42,51402,16.31,74302.5,9.35,-33.67,-34.25,0,*71
1506938472.64,51403,16.31,74300.3,9.35,-34.25,-34.77,0,*76
1506938473.87,51404,16.25,74300.0,9.35,-36.97,-37.57,0,*7B
1506938475.1,51405,16.31,74304.0,9.33,-35.29,-35.83,0,*71
1506938476.32,51406,16.31,74300.0,9.33,-33.15,-33.49,0,*7B
1506938477.57,51407,16.25,74300.3,9.35,-32.57,-32.97,0,*79
1506938478.83,51408,16.31,74300.5,9.35,-32.45,-32.97,0,*75
1506938480.08,51409,16.31,74302.5,9.35,-34.41,-34.83,0,*75
1506938481.32,51410,16.25,74300.0,9.39,-34.35,-34.77,0,*79
1506938482.57,51411,16.31,74298.5,9.39,-34.31,-34.71,0,*7A
1506938483.79,51412,16.31,74300.8,9.39,-33.83,-34.47,0,*72
1506938485.02,51413,16.31,74296.8,9.37,-32.75,-33.21,0,*72
1506938486.3,51414,16.25,74294.8,9.41,-32.79,-33.31,0,*79
1506938487.55,51415,16.25,74282.8,9.41,-32.79,-33.21,0,*79
1506938488.75,51416,16.25,74286.8,9.43,-32.91,-33.15,0,*79
1506938489.99,51417,16.31,74290.8,9.43,-34.47,-34.83,0,*7D
1506938491.22,51418,16.31,74288.8,9.43,-35.29,-35.41,0,*74
1506938492.44,51419,16.31,74284.5,9.41,-37.33,-38.05,0,*73
1506938493.67,51420,16.31,74286.0,9.37,-40.41,-41.11,0,*76
1506938494.94,51421,16.25,74288.0,9.35,-37.39,-37.81,0,*72
1506938496.17,51422,16.25,74284.0,9.33,-39.91,-40.79,0,*7C
1506938497.42,51423,16.31,74286.8,9.27,-39.23,-40.03,0,*7C
1506938498.66,51424,16.31,74290.8,9.23,-38.97,-39.71,0,*7A
1506938499.94,51425,16.25,74276.5,9.23,-38.49,-39.29,0,*75
1506938501.19,51426,16.25,74282.0,9.19,-37.99,-38.35,0,*71
1506938502.47,51427,16.31,74288.3,9.19,-36.13,-36.49,0,*76
1506938503.7,51428,16.31,74290.0,9.17,-37.87,-38.49,0,*75
1506938504.91,51429,16.25,74288.0,9.17,-37.87,-38.43,0,*7E
1506938506.16,51430,16.25,74282.8,9.15,-37.09,-37.33,0,*7A
1506938507.4,51431,16.25,74286.8,9.15,-37.57,-38.11,0,*7F
1506938508.65,51432,16.25,74286.8,9.13,-36.25,-36.79,0,*7E
1506938509.93,51433,16.25,74290.5,9.11,-36.37,-36.91,0,*78
1506938511.18,51434,16.25,74292.8,9.13,-33.77,-34.19,0,*7E
1506938512.42,51435,16.25,74290.3,9.15,-34.89,-35.41,0,*73
1506938513.7,51436,16.25,74292.8,9.15,-35.83,-36.25,0,*7A
1506938514.95,51437,16.31,74296.8,9.15,-37.27,-37.93,0,*7B
1506938516.18,51438,16.25,74290.0,9.11,-38.05,-38.55,0,*7A
1506938517.47,51439,16.25,74294.8,9.11,-37.09,-37.63,0,*72
1506938518.73,51440,16.31,74296.8,9.09,-37.51,-37.51,0,*79
1506938519.95,51441,16.25,74298.0,9.05,-35.29,-35.77,0,*7F
1506938521.16,51442,16.25,74294.3,9.09,-34.07,-34.47,0,*7F
1506938522.4,51443,16.25,74296.5,9.09,-34.47,-34.83,0,*72
1506938523.64,51444,16.25,74296.0,9.09,-34.47,-34.95,0,*72
1506938524.89,51445,16.25,74300.3,9.11,-34.31,-34.77,0,*77
1506938526.12,51446,16.25,74298.5,9.13,-33.43,-33.67,0,*72
1506938527.35,51447,16.25,74296.5,9.17,-32.75,-33.21,0,*71
1506938528.6,51448,16.25,74302.8,9.17,-37.09,-37.69,0,*78
1506938529.83,51449,16.25,74302.8,9.15,-37.27,-37.75,0,*7A
1506938531.09,51450,16.25,74300.3,9.15,-35.29,-35.95,0,*72
1506938532.37,51451,16.25,74302.8,9.15,-34.65,-34.95,0,*7B
1506938533.57,51452,16.25,74302.5,9.17,-33.03,-33.37,0,*72
1506938534.81,51453,16.25,74296.3,9.17,-35.95,-36.55,0,*7B
1506938536.09,51454,16.25,74296.0,9.15,-36.25,-37.09,0,*7E
1506938537.36,51455,16.25,74296.3,9.15,-37.51,-38.29,0,*70
1506938538.6,51456,16.25,74292.8,9.13,-38.49,-39.09,0,*70
1506938539.86,51457,16.25,74290.0,9.11,-36.85,-37.51,0,*7E
1506938541.14,51458,16.25,74284.8,9.11,-37.09,-37.81,0,*79
1506938542.39,51459,16.25,74280.3,9.05,-36.97,-37.69,0,*7D
1506938543.63,51460,16.25,74278.0,9.05,-38.05,-38.67,0,*73
1506938544.85,51461,16.25,74278.3,9.01,-37.57,-38.17,0,*79
1506938546.13,51462,16.25,74280.8,9.01,-37.39,-38.67,0,*75
1506938547.34,51463,16.25,74284.3,8.97,-38.61,-39.35,0,*7E
1506938548.57,51464,16.25,74284.5,8.97,-38.17,-38.43,0,*78
1506938549.76,51465,16.25,74290.3,8.95,-35.77,-36.19,0,*71
1506938550.99,51466,16.25,74290.8,8.97,-36.67,-37.03,0,*78
1506938552.21,51467,16.25,74290.5,8.93,-36.55,-36.97,0,*70
1506938553.44,51468,16.25,74294.5,8.95,-34.65,-35.01,0,*74
1506938554.69,51469,16.25,74294.5,8.95,-34.83,-35.07,0,*7B
1506938555.91,51470,16.25,74292.0,8.95,-36.19,-36.79,0,*78
1506938557.18,51471,16.25,74298.5,8.93,-37.39,-37.93,0,*79
1506938558.4,51472,16.25,74292.5,8.95,-34.47,-34.83,0,*74
1506938559.63,51473,16.25,74294.3,8.95,-33.21,-33.43,0,*79
1506938560.87,51474,16.25,74294.8,8.97,-33.15,-33.49,0,*71
1506938562.07,51475,16.25,74298.3,8.99,-33.03,-33.37,0,*70
1506938563.32,51476,16.25,74296.5,9.01,-32.97,-33.15,0,*7F
1506938564.54,51477,16.25,74292.5,9.03,-32.07,-32.23,0,*71
1506938565.75,51478,16.25,74300.3,9.09,-32.13,-32.39,0,*7A
1506938567.01,51479,16.25,74298.3,9.09,-31.57,-31.61,0,*76
1506938568.25,51480,16.25,74296.0,9.13,-31.51,-31.57,0,*78
1506938569.51,51481,16.25,74298.5,9.17,-31.95,-32.29,0,*7F
1506938570.71,51482,16.25,74304.8,9.17,-31.79,-32.01,0,*74
1506938571.95,51483,16.25,74302.8,9.19,-32.29,-32.57,0,*7E
1506938573.2,51484,16.25,74306.0,9.21,-31.39,-31.51,0,*75
1506938574.43,51485,16.25,74300.3,9.23,-31.17,-31.29,0,*75
1506938575.7,51486,16.25,74298.3,9.27,-31.51,-31.85,0,*76
1506938576.98,51487,16.25,74296.3,9.31,-31.95,-32.07,0,*71
1506938578.21,51488,16.25,74296.0,9.33,-31.33,-31.39,0,*7E
1506938579.48,51489,16.25,74296.8,9.35,-31.57,-31.57,0,*73
1506938580.68,51490,16.25,74292.0,9.37,-31.29,-31.45,0,*73
1506938581.9,51491,16.25,74286.0,9.37,-31.95,-32.13,0,*75
1506938583.12,51492,16.25,74284.8,9.39,-32.57,-32.57,0,*75
1506938584.37,51493,16.25,74288.0,9.41,-34.07,-34.31,0,*7E
1506938585.63,51494,16.25,74286.5,9.41,-34.53,-34.71,0,*7C
1506938586.88,51495,16.25,74286.5,9.41,-33.43,-33.37,0,*7E
1506938588.08,51496,16.25,74286.5,9.43,-33.83,-34.07,0,*77
1506938589.34,51497,16.25,74288.3,9.41,-34.53,-35.17,0,*7E
1506938590.62,51498,16.25,74290.3,9.41,-33.31,-33.61,0,*75
1506938591.88,51499,16.25,74288.5,9.41,-32.29,-32.29,0,*71
1506938593.11,51500,16.25,74294.5,9.43,-32.63,-32.91,0,*7F
1506938594.36,51501,16.25,74292.5,9.41,-32.97,-33.15,0,*7A
1506938595.57,51502,16.25,74292.5,9.43,-32.23,-32.39,0,*7B
1506938596.79,51503,16.25,74292.3,9.47,-31.85,-32.13,0,*79
1506938597.98,51504,16.25,74292.3,9.47,-32.23,-32.57,0,*71
1506938599.22,51505,16.25,74294.5,9.53,-33.27,-33.95,0,*7F
1506938600.48,51506,16.25,74296.0,9.49,-34.71,-35.07,0,*7E
1506938601.72,51507,16.25,74294.3,9.53,-33.43,-33.95,0,*7F
1506938603.0,51508,16.25,74298.3,9.53,-34.53,-34.83,0,*76
1506938604.22,51509,16.25,74298.0,9.49,-36.55,-36.97,0,*7F
1506938605.48,51510,16.25,74298.5,9.49,-37.03,-37.51,0,*7E
1506938606.73,51511,16.25,74302.8,9.45,-35.77,-36.13,0,*75
1506938607.96,51512,16.25,74296.8,9.47,-34.59,-34.95,0,*75
1506938609.18,51513,16.25,74300.8,9.47,-33.95,-34.35,0,*79
1506938610.42,51514,16.25,74296.5,9.47,-33.09,-33.61,0,*7D
1506938611.65,51515,16.25,74294.3,9.47,-33.03,-33.27,0,*74
1506938612.9,51516,16.25,74296.0,9.49,-33.49,-34.07,0,*72
1506938614.15,51517,16.25,74290.8,9.53,-33.77,-34.13,0,*70
1506938615.39,51518,16.25,74294.0,9.53,-36.79,-37.33,0,*75
1506938616.62,51519,16.25,74296.3,9.49,-36.73,-37.15,0,*71
1506938617.91,51520,16.25,74296.0,9.45,-37.21,-37.63,0,*70
1506938619.13,51521,16.25,74296.8,9.47,-35.23,-35.71,0,*72
1506938620.35,51522,16.25,74296.5,9.45,-33.83,-34.25,0,*7F
1506938621.55,51523,16.25,74298.8,9.47,-32.23,-32.39,0,*7C
1506938622.77,51524,16.25,74298.3,9.47,-33.37,-33.73,0,*70
1506938623.98,51525,16.25,74296.0,9.47,-32.39,-32.69,0,*74
1506938625.22,51526,16.25,74298.3,9.49,-33.31,-33.83,0,*75
1506938626.47,51527,16.25,74298.3,9.49,-36.61,-36.85,0,*77
1506938627.7,51528,16.25,74296.8,9.49,-36.19,-36.55,0,*7A
1506938628.9,51529,16.25,74298.5,9.47,-34.71,-35.13,0,*78
1506938630.13,51530,16.25,74298.3,9.47,-34.95,-35.47,0,*7B
1506938631.39,51531,16.25,74298.8,9.45,-36.49,-37.03,0,*79
1506938632.63,51532,16.25,74294.3,9.47,-37.39,-38.11,0,*72
1506938633.84,51533,16.25,74294.8,9.43,-36.31,-36.67,0,*71
1506938635.08,51534,16.25,74294.8,9.43,-34.83,-35.29,0,*74
1506938636.34,51535,16.25,74294.5,9.43,-33.49,-33.73,0,*7D
1506938637.59,51536,16.25,74298.8,9.43,-32.29,-32.75,0,*7E
1506938638.85,51537,16.25,74298.8,9.45,-32.57,-32.79,0,*7C
1506938640.07,51538,16.25,74298.3,9.47,-33.21,-33.31,0,*7C
1506938641.29,51539,16.25,74296.0,9.47,-35.89,-36.37,0,*7A
1506938642.51,51540,16.25,74296.0,9.47,-35.59,-35.83,0,*75
1506938643.73,51541,16.25,74298.5,9.47,-35.41,-35.71,0,*70
1506938645.01,51542,16.25,74298.0,9.45,-36.25,-36.61,0,*72
1506938646.25,51543,16.25,74296.5,9.45,-35.65,-36.07,0,*74
1506938647.5,51544,16.25,74298.0,9.45,-33.31,-33.83,0,*7D
1506938648.74,51545,16.25,74296.3,9.45,-34.59,-35.13,0,*7A
1506938649.99,51546,16.25,74294.5,9.45,-36.67,-37.21,0,*75
1506938651.2,51547,16.25,74294.3,9.43,-37.75,-38.35,0,*7A
1506938652.47,51548,16.25,74294.3,9.41,-36.13,-36.49,0,*73
1506938653.72,51549,16.25,74288.5,9.41,-36.19,-36.49,0,*78
1506938654.97,51550,16.25,74288.3,9.39,-34.35,-34.71,0,*7A
1506938656.21,51551,16.25,74286.5,9.39,-34.13,-34.35,0,*7F
1506938657.42,51552,16.25,74288.0,9.43,-34.47,-35.01,0,*76
1506938658.64,51553,16.25,74290.3,9.41,-33.95,-34.41,0,*78
1506938659.9,51554,16.25,74292.5,9.41,-34.53,-34.89,0,*76
1506938661.18,51555,16.19,74286.5,9.41,-34.31,-34.65,0,*71
1506938662.44,51556,16.25,74290.0,9.41,-32.45,-32.51,0,*76
1506938663.7,51557,16.25,74288.3,9.43,-33.09,-33.27,0,*7C
1506938664.96,51558,16.25,74290.8,9.43,-32.75,-33.09,0,*75
1506938666.15,51559,16.25,74286.8,9.47,-32.91,-33.21,0,*70
1506938667.37,51560,16.25,74286.8,9.47,-31.79,-31.85,0,*73
1506938668.6,51561,16.19,74284.5,9.47,-32.39,-32.75,0,*79
1506938669.85,51562,16.25,74286.3,9.53,-33.37,-33.77,0,*73
1506938671.1,51563,16.19,74286.0,9.53,-33.77,-34.07,0,*76
1506938672.34,51564,16.19,74284.5,9.53,-33.95,-34.35,0,*7C
1506938673.56,51565,16.25,74286.3,9.55,-34.95,-35.17,0,*7D
1506938674.85,51566,16.25,74286.0,9.53,-37.81,-38.29,0,*7E
1506938676.1,51567,16.25,74286.5,9.47,-38.49,-38.91,0,*72
1506938677.38,51568,16.19,74280.8,9.45,-36.79,-37.21,0,*76
1506938678.58,51569,16.19,74282.5,9.43,-37.03,-37.45,0,*7F
1506938679.8,51570,16.25,74288.0,9.41,-36.67,-36.85,0,*7B
1506938681.06,51571,16.19,74286.3,9.41,-35.59,-35.95,0,*76
1506938682.28,51572,16.25,74288.0,9.41,-34.13,-34.41,0,*72
1506938683.56,51573,16.19,74288.0,9.41,-33.31,-33.61,0,*71
1506938684.81,51574,16.19,74290.0,9.41,-33.73,-34.13,0,*72
1506938686.1,51575,16.25,74290.0,9.41,-35.95,-36.13,0,*7F
1506938687.31,51576,16.19,74290.5,9.43,-35.53,-36.07,0,*71
1506938688.59,51577,16.25,74292.3,9.41,-34.53,-35.07,0,*70
1506938689.82,51578,16.19,74292.0,9.43,-34.07,-34.35,0,*7C
1506938691.07,51579,16.19,74290.0,9.43,-34.01,-34.35,0,*7B
1506938692.33,51580,16.25,74294.3,9.45,-34.77,-35.35,0,*7B
1506938693.58,51581,16.19,74288.3,9.43,-35.65,-36.25,0,*7C
1506938694.78,51582,16.19,74288.8,9.43,-36.31,-36.85,0,*77
1506938695.99,51583,16.19,74290.8,9.43,-34.77,-35.13,0,*7A
1506938697.27,51584,16.25,74294.3,9.41,-34.31,-34.83,0,*75
1506938698.47,51585,16.19,74288.8,9.43,-33.55,-34.07,0,*7F
1506938699.7,51586,16.19,74290.3,9.43,-33.55,-34.01,0,*7A
1506938700.96,51587,16.19,74290.5,9.45,-35.53,-36.13,0,*7C
1506938702.22,51588,16.19,74290.0,9.45,-36.13,-36.67,0,*77
1506938703.47,51589,16.19,74288.0,9.41,-35.41,-35.77,0,*74
1506938704.71,51590,16.25,74290.5,9.43,-34.95,-35.29,0,*7D
1506938705.97,51591,16.19,74286.0,9.41,-35.95,-36.55,0,*77
1506938707.2,51592,16.19,74288.3,9.41,-36.31,-36.67,0,*78
1506938708.45,51593,16.19,74288.5,9.41,-34.89,-35.23,0,*7B
1506938709.7,51594,16.19,74290.0,9.41,-33.95,-34.31,0,*74
1506938710.98,51595,16.19,74290.3,9.41,-36.91,-37.63,0,*70
1506938712.21,51596,16.19,74288.8,9.41,-36.19,-36.67,0,*76
1506938713.45,51597,16.19,74290.3,9.39,-33.83,-34.35,0,*7B
1506938714.7,51598,16.19,74290.3,9.39,-35.83,-36.19,0,*7E
1506938715.92,51599,16.19,74288.8,9.37,-36.61,-37.15,0,*73
1506938717.12,51600,16.19,74286.3,9.37,-37.15,-37.75,0,*74
1506938718.34,51601,16.19,74286.5,9.37,-35.41,-35.89,0,*77
1506938719.59,51602,16.19,74286.5,9.35,-36.61,-37.03,0,*77
1506938720.81,51603,16.19,74284.5,9.33,-35.29,-35.65,0,*7D
1506938722.09,51604,16.19,74284.5,9.35,-34.35,-34.65,0,*71
1506938723.34,51605,16.19,74280.8,9.35,-34.59,-34.83,0,*72
1506938724.56,51606,16.19,74278.3,9.37,-34.19,-34.59,0,*70
1506938725.79,51607,16.19,74280.5,9.37,-34.71,-35.41,0,*77
1506938727.0,51608,16.19,74282.8,9.37,-35.47,-35.89,0,*78
1506938728.27,51609,16.19,74282.3,9.35,-35.35,-35.95,0,*73
1506938729.52,51610,16.19,74282.8,9.35,-37.27,-37.81,0,*7D
1506938730.73,51611,16.19,74284.5,9.33,-36.31,-36.67,0,*75
1506938732.01,51612,16.19,74286.5,9.35,-34.95,-35.53,0,*78
1506938733.27,51613,16.19,74288.3,9.33,-37.81,-38.29,0,*79
1506938734.55,51614,16.19,74290.3,9.27,-37.51,-38.29,0,*76
1506938735.82,51615,16.19,74288.3,9.27,-36.79,-37.21,0,*7B
1506938737.1,51616,16.19,74288.8,9.27,-37.21,-37.93,0,*7D
1506938738.33,51617,16.19,74294.8,9.25,-36.25,-36.73,0,*74
1506938739.58,51618,16.19,74290.5,9.23,-35.13,-35.53,0,*7A
1506938740.81,51619,16.19,74294.8,9.25,-34.65,-35.13,0,*79
1506938742.06,51620,16.19,74294.3,9.23,-36.79,-37.15,0,*7E
1506938743.34,51621,16.19,74294.5,9.23,-37.39,-37.93,0,*74
1506938744.61,51622,16.19,74290.8,9.19,-38.67,-39.23,0,*7F
1506938745.83,51623,16.19,74292.5,9.19,-36.19,-36.67,0,*76
1506938747.06,51624,16.19,74292.0,9.21,-37.15,-37.51,0,*73
1506938748.32,51625,16.19,74294.8,9.19,-37.69,-38.35,0,*7F
1506938749.54,51626,16.19,74292.5,9.15,-37.15,-37.75,0,*70
1506938750.75,51627,16.19,74292.3,9.17,-36.01,-36.43,0,*73
1506938751.99,51628,16.19,74292.3,9.15,-36.19,-36.91,0,*78
1506938753.26,51629,16.19,74296.8,9.15,-36.61,-37.09,0,*76
1506938754.52,51630,16.19,74298.3,9.15,-36.97,-37.39,0,*74
1506938755.72,51631,16.19,74294.8,9.13,-35.71,-36.19,0,*7B
1506938756.99,51632,16.19,74296.8,9.15,-38.11,-38.49,0,*7E
1506938758.22,51633,16.19,74290.0,9.11,-36.85,-37.27,0,*7F
1506938759.48,51634,16.19,74294.0,9.11,-37.39,-37.87,0,*74
1506938760.73,51635,16.19,74288.3,9.11,-35.95,-36.31,0,*7D
1506938761.99,51636,16.19,74288.3,9.11,-36.55,-37.09,0,*7B
1506938763.25,51637,16.19,74290.8,9.05,-38.67,-39.23,0,*76
1506938764.5,51638,16.19,74294.8,9.05,-36.91,-37.15,0,*75
1506938765.72,51639,16.19,74292.5,9.05,-35.59,-36.01,0,*77
1506938766.95,51640,16.19,74296.3,9.05,-36.01,-36.55,0,*76
1506938768.17,51641,16.19,74298.3,9.05,-36.73,-37.15,0,*77
1506938769.41,51642,16.19,74296.3,9.05,-37.15,-37.69,0,*7E
1506938770.65,51643,16.19,74292.3,9.05,-36.79,-37.33,0,*7B
1506938771.87,51644,16.19,74298.8,9.03,-35.13,-35.35,0,*71
1506938773.06,51645,16.19,74302.0,9.03,-34.89,-35.17,0,*72
1506938774.33,51646,16.19,74300.0,9.05,-33.89,-34.01,0,*76
1506938775.59,51647,16.19,74300.8,9.09,-33.49,-33.73,0,*75
1506938776.82,51648,16.19,74302.8,9.09,-34.41,-34.65,0,*75
1506938778.06,51649,16.19,74306.3,9.13,-33.89,-34.19,0,*77
1506938779.26,51650,16.19,74306.8,9.13,-34.25,-34.71,0,*70
1506938780.51,51651,16.19,74308.8,9.15,-33.37,-33.61,0,*75
1506938781.74,51652,16.19,74310.5,9.17,-33.77,-34.13,0,*72
1506938782.99,51653,16.19,74310.8,9.17,-34.31,-34.53,0,*72
1506938784.27,51654,16.19,74308.5,9.19,-33.73,-34.31,0,*7E
1506938785.49,51655,16.19,74304.5,9.19,-37.03,-37.45,0,*7C
1506938786.69,51656,16.19,74310.0,9.17,-37.33,-37.75,0,*71
1506938787.96,51657,16.19,74292.8,9.15,-38.11,-38.67,0,*71
1506938789.19,51658,16.19,74296.3,9.13,-37.75,-38.23,0,*75
1506938790.44,51659,16.19,74282.3,9.11,-36.91,-37.45,0,*72
1506938791.68,51660,16.19,74280.3,9.11,-37.87,-38.43,0,*77
1506938792.94,51661,16.19,74272.3,9.05,-38.67,-39.29,0,*7F
1506938794.18,51662,16.19,74274.8,9.05,-36.79,-37.27,0,*7D
1506938795.36,51663,16.19,74276.8,9.03,-38.97,-39.47,0,*7C
1506938796.62,51664,16.19,74282.0,9.01,-38.29,-38.85,0,*73
1506938797.84,51665,16.19,74274.5,8.99,-37.45,-37.99,0,*75
1506938799.09,51666,16.19,74282.3,8.97,-39.59,-40.35,0,*7D
1506938800.32,51667,16.19,74282.5,8.95,-39.09,-39.79,0,*7D
1506938801.55,51668,16.19,74286.8,8.95,-40.03,-40.85,0,*7B
1506938802.8,51669,16.19,74286.0,8.89,-41.49,-42.19,0,*7F
1506938804.05,51670,16.19,74290.0,8.89,-39.15,-39.91,0,*7D
1506938805.33,51671,16.19,74292.0,8.85,-40.21,-40.97,0,*71
1506938806.58,51672,16.19,74290.0,8.79,-37.93,-38.49,0,*74
1506938807.84,51673,16.19,74292.5,8.79,-37.99,-38.67,0,*73
1506938809.03,51674,16.19,74292.8,8.79,-35.71,-36.19,0,*77
1506938810.3,51675,16.19,74294.5,8.77,-37.21,-37.57,0,*74
1506938811.53,51676,16.19,74298.5,8.79,-35.89,-36.25,0,*7D
1506938812.78,51677,16.19,74298.5,8.79,-35.23,-35.65,0,*7B
1506938814.01,51678,16.19,74302.8,8.79,-36.61,-37.15,0,*74
1506938815.28,51679,16.19,74300.3,8.81,-38.11,-38.49,0,*7D
1506938816.48,51680,16.19,74300.8,8.79,-38.17,-38.73,0,*73
1506938817.76,51681,16.19,74302.5,8.75,-38.79,-39.15,0,*77
1506938819.01,51682,16.19,74306.5,8.75,-35.29,-35.53,0,*72
1506938820.26,51683,16.19,74306.3,8.77,-34.19,-34.47,0,*77
1506938821.49,51684,16.19,74304.5,8.77,-35.29,-35.59,0,*7C
1506938822.75,51685,16.19,74304.5,8.79,-37.51,-38.11,0,*7F
1506938823.95,51686,16.19,74300.3,8.79,-36.85,-37.33,0,*7B
1506938825.16,51687,16.19,74306.0,8.79,-37.87,-38.35,0,*70
1506938826.41,51688,16.19,74302.0,8.77,-39.53,-40.15,0,*7B
1506938827.67,51689,16.19,74304.0,8.75,-39.79,-40.47,0,*77
1506938828.92,51690,16.19,74302.5,8.71,-40.09,-40.73,0,*75
1506938830.17,51691,16.19,74304.0,8.71,-40.65,-41.23,0,*7A
1506938831.44,51692,16.19,74302.8,8.67,-40.29,-40.79,0,*78
1506938832.68,51693,16.19,74298.3,8.63,-38.97,-39.41,0,*72
1506938833.96,51694,16.19,74300.8,8.63,-38.23,-38.67,0,*7F
1506938835.21,51695,16.19,74300.8,8.63,-36.91,-37.45,0,*76
1506938836.48,51696,16.19,74302.0,8.63,-35.83,-36.37,0,*71
1506938837.71,51697,16.19,74298.5,8.65,-34.83,-35.17,0,*76
1506938838.97,51698,16.19,74292.5,8.65,-35.95,-36.49,0,*77
1506938840.23,51699,16.19,74296.0,8.65,-34.83,-35.35,0,*78
1506938841.47,51700,16.19,74288.8,8.67,-35.13,-35.65,0,*76
1506938842.7,51701,16.19,74290.8,8.67,-35.29,-35.71,0,*7B
1506938843.9,51702,16.19,74290.8,8.69,-35.71,-36.07,0,*79
1506938845.13,51703,16.19,74288.5,8.67,-35.71,-36.07,0,*76
1506938846.38,51704,16.19,74290.3,8.69,-35.65,-35.95,0,*72
1506938847.62,51705,16.19,74290.0,8.69,-35.95,-36.31,0,*71
1506938848.84,51706,16.19,74286.8,8.67,-36.85,-37.27,0,*78
1506938850.1,51707,16.13,74286.5,8.67,-37.99,-38.55,0,*7F
1506938851.33,51708,16.19,74282.3,8.67,-38.43,-39.09,0,*70
1506938852.61,51709,16.13,74282.3,8.63,-38.79,-39.15,0,*71
1506938853.89,51710,16.19,74284.5,8.63,-39.23,-40.41,0,*78
1506938855.14,51711,16.19,74286.3,8.55,-40.97,-41.87,0,*76
1506938856.36,51712,16.19,74280.8,8.53,-41.17,-41.93,0,*7F
1506938857.61,51713,16.19,74286.3,8.49,-41.81,-42.45,0,*72
1506938858.83,51714,16.13,74278.0,8.49,-41.29,-42.05,0,*73
1506938860.06,51715,16.13,74276.3,8.45,-41.73,-42.57,0,*76
1506938861.27,51716,16.19,74286.0,8.39,-41.17,-41.81,0,*74
1506938862.52,51717,16.19,74288.3,8.33,-41.41,-42.19,0,*7E
1506938863.78,51718,16.19,74284.5,8.33,-40.41,-41.11,0,*7B
1506938864.99,51719,16.19,74286.8,8.29,-40.65,-41.17,0,*71
1506938866.19,51720,16.19,74286.8,8.27,-39.85,-40.65,0,*71
1506938867.39,51721,16.13,74282.8,8.27,-39.47,-40.15,0,*79
1506938868.66,51722,16.19,74284.0,8.25,-38.67,-39.15,0,*75
1506938869.85,51723,16.19,74282.3,8.23,-38.55,-38.97,0,*78
1506938871.08,51724,16.19,74284.0,8.23,-38.79,-38.97,0,*71
1506938872.27,51725,16.13,74284.8,8.23,-38.17,-38.61,0,*71
1506938873.52,51726,16.19,74286.0,8.21,-37.09,-37.57,0,*7A
1506938874.8,51727,16.13,74290.0,8.21,-37.63,-37.99,0,*75
1506938876.02,51728,16.13,74288.3,8.21,-38.17,-38.43,0,*7E
1506938877.27,51729,16.19,74288.5,8.21,-35.01,-35.35,0,*79
1506938878.52,51730,16.13,74288.3,8.25,-34.19,-34.71,0,*7C
1506938879.75,51731,16.19,74294.0,8.27,-34.47,-34.83,0,*79
1506938880.97,51732,16.13,74288.8,8.27,-34.47,-34.83,0,*7A
1506938882.17,51733,16.19,74292.5,8.31,-34.13,-34.47,0,*75
1506938883.42,51734,16.13,74288.8,8.33,-35.13,-35.41,0,*76
1506938884.66,51735,16.13,74292.5,8.33,-35.13,-35.65,0,*71
1506938885.91,51736,16.13,74292.3,8.35,-33.27,-33.77,0,*70
1506938887.15,51737,16.13,74290.0,8.41,-33.89,-34.13,0,*73
1506938888.41,51738,16.13,74290.5,8.41,-33.37,-33.89,0,*7D
1506938889.69,51739,16.13,74290.0,8.47,-32.79,-33.31,0,*72
1506938890.97,51740,16.13,74286.3,8.47,-33.43,-33.77,0,*76
1506938892.19,51741,16.13,74288.8,8.49,-33.61,-33.83,0,*72
1506938893.44,51742,16.13,74284.5,8.51,-34.13,-34.65,0,*75
1506938894.67,51743,16.13,74288.8,8.51,-34.13,-34.59,0,*7B
1506938895.92,51744,16.19,74288.8,8.55,-32.63,-33.15,0,*76
1506938897.17,51745,16.13,74286.5,8.55,-34.53,-35.17,0,*76
1506938898.42,51746,16.13,74288.8,8.55,-33.83,-34.19,0,*70
1506938899.66,51747,16.13,74288.0,8.55,-35.13,-35.65,0,*74
1506938900.89,51748,16.19,74290.5,8.57,-33.43,-33.83,0,*74
1506938902.16,51749,16.13,74286.8,8.59,-34.35,-35.07,0,*77
1506938903.41,51750,16.13,74286.3,8.59,-33.83,-34.31,0,*71
1506938904.65,51751,16.13,74288.8,8.57,-35.29,-35.83,0,*70